This is the latest recevied weather packets stored in our database for station/object WD4ITN. If no packets are shown the sender has not sent any weather packets the latest 1 day(s).
| Time | Temp. | Humidity | Pressure | Rain* | Wind** | Luminosity | Snow |
|---|---|---|---|---|---|---|---|
| 1778086994 | 15.56° C | 93% | 1008.7 hPa | 8.38 mm | - | - | - |
| 1778085800 | 15.56° C | 93% | 1008.7 hPa | 8.38 mm | - | - | - |
| 1778085498 | 15° C | 94% | 1008.7 hPa | 8.38 mm | - | - | - |
| 1778085198 | 15° C | 94% | 1008.9 hPa | 8.38 mm | - | - | - |
| 1778084915 | 15° C | 94% | 1008.8 hPa | 8.38 mm | - | - | - |
| 1778083697 | 15° C | 93% | 1008.8 hPa | 8.38 mm | - | - | - |
| 1778083401 | 15° C | 94% | 1008.7 hPa | 8.38 mm | - | - | - |
| 1778082214 | 15° C | 93% | 1008.5 hPa | 8.38 mm | - | - | - |
| 1778081601 | 15° C | 94% | 1008.6 hPa | 8.38 mm | - | - | - |
| 1778081012 | 14.44° C | 96% | 1008.6 hPa | 8.38 mm | - | - | - |
| 1778080710 | 14.44° C | 97% | 1008.4 hPa | 8.38 mm | - | - | - |
| 1778079503 | 13.89° C | 98% | 1008.5 hPa | 8.38 mm | - | - | - |
| 1778077414 | 12.78° C | 98% | 1008.6 hPa | 8.38 mm | - | - | - |
| 1778074716 | 12.78° C | 98% | 1008.8 hPa | 8.38 mm | - | - | - |
| 1778074407 | 12.78° C | 98% | 1008.9 hPa | 8.38 mm | - | - | - |
| 1778072296 | 12.22° C | 97% | 1008.9 hPa | 7.62 mm | - | - | - |
| 1778071412 | 12.22° C | 97% | 1008.9 hPa | 6.86 mm | - | - | - |
| 1778071107 | 12.22° C | 97% | 1008.9 hPa | 6.6 mm | - | - | - |
| 1778070804 | 12.22° C | 97% | 1008.7 hPa | 6.6 mm | - | - | - |
| 1778069892 | 12.22° C | 97% | 1008.8 hPa | 6.35 mm | - | - | - |
| 1778069309 | 11.67° C | 97% | 1008.8 hPa | 6.35 mm | - | - | - |
| 1778069010 | 11.67° C | 97% | 1008.8 hPa | 6.35 mm | - | - | - |
| 1778068395 | 11.67° C | 96% | 1009 hPa | 6.1 mm | - | - | - |
| 1778067498 | 11.67° C | 96% | 1009.1 hPa | 4.32 mm | - | - | - |
| 1778066621 | 11.67° C | 95% | 1009 hPa | 3.05 mm | - | - | - |
* Rain since midnight (hover to see other rain measurements)
** Current wind speed in m/s (hover to see current wind gust speed)